Date String (YYYY-MM-DD hh:mm:ss) UTC,Instrument flags,absolute air pressure of the measurement (hPa),sample flow rate (lpm),inlet stack bypass flow (lpm),air temperature of the measurement (°C),ambient temperature measured by the external sensor (°C),aerosol sample conditioner tube jacket temperature (°C),OPC LED temperature (°C),internal box temperature (°C),relative humidity of the measurement (%),span deviation,mass concentration of particles derived from Lorenz-Mie calculation of OPC scattering (μg/m³),mass concentration of particles derived from Lorenz-Mie calculation of OPC scattering (μg/m³),mass concentration of particles derived from Lorenz-Mie calculation of OPC scattering (μg/m³)
DateTimeUTC,F1_M11,P_M11,Q1_M11,Q2_M11,T1_M11,T2_M11,T3_M11,T4_M11,T5_M11,U1_M11,ZSPAN_M11,X2_M11,X0_M11,X1_M11
2023-11-04 03:00:00,SystemResetWarning,0833.8,5.00,000.00,027.9,027.0,000.0,036.2,029.4,14.4,0000.0,0003.36,0013.08,0001.99
2023-11-04 03:01:00,SystemResetWarning,0833.8,5.00,000.00,027.9,027.0,000.0,036.2,029.4,14.4,0000.0,0003.33,0013.66,0001.97
2023-11-04 03:02:00,SystemResetWarning,0833.7,5.01,000.00,027.9,027.0,000.0,036.2,029.4,14.4,0000.0,0003.32,0013.83,0001.96
2023-11-04 03:03:00,SystemResetWarning,0833.8,4.99,000.00,027.9,027.1,000.0,036.2,029.4,14.3,0000.0,0003.30,0013.23,0001.97
2023-11-04 03:04:00,SystemResetWarning,0833.8,4.98,000.00,028.0,027.1,000.0,036.2,029.5,14.3,0000.0,0003.29,0012.92,0001.99
2023-11-04 03:05:00,SystemResetWarning,0833.8,5.00,000.00,028.0,027.1,000.0,036.2,029.5,14.3,0000.0,0003.35,0013.03,0002.04
2023-11-04 03:06:00,SystemResetWarning,0833.8,5.01,000.00,028.0,027.1,000.0,036.3,029.5,14.3,0000.0,0003.35,0012.29,0002.06
2023-11-04 03:07:00,SystemResetWarning,0833.8,5.00,000.00,028.0,027.2,000.0,036.3,029.5,14.4,0000.0,0003.37,0012.02,0002.08
2023-11-04 03:08:00,SystemResetWarning,0833.8,5.01,000.00,028.0,027.2,000.0,036.3,029.5,14.3,0000.0,0003.37,0011.65,0002.09
2023-11-04 03:09:00,SystemResetWarning,0833.8,5.00,000.00,028.0,027.2,000.0,036.3,029.5,14.3,0000.0,0003.38,0011.75,0002.11
2023-11-04 03:10:00,SystemResetWarning,0833.8,4.99,000.00,028.0,027.2,000.0,036.3,029.5,14.3,0000.0,0003.42,0010.78,0002.15
2023-11-04 03:11:00,SystemResetWarning,0833.8,4.99,000.00,028.1,027.2,000.0,036.3,029.5,14.3,0000.0,0003.43,0010.20,0002.19
2023-11-04 03:12:00,SystemResetWarning,0833.9,5.00,000.00,028.1,027.2,000.0,036.3,029.6,14.3,0000.0,0003.48,0010.20,0002.21
2023-11-04 03:13:00,SystemResetWarning,0833.9,5.00,000.00,028.1,027.2,000.0,036.4,029.6,14.4,0000.0,0003.52,0010.07,0002.23
2023-11-04 03:14:00,SystemResetWarning,0833.8,5.01,000.00,028.1,027.2,000.0,036.4,029.6,14.4,0000.0,0003.54,0011.37,0002.24
2023-11-04 03:15:00,SystemResetWarning,0833.9,5.01,000.00,028.1,027.2,000.0,036.4,029.6,14.4,0000.0,0003.52,0011.59,0002.24
2023-11-04 03:16:00,SystemResetWarning,0833.9,5.00,000.00,028.1,027.3,000.0,036.4,029.6,14.4,0000.0,0003.49,0011.34,0002.23
2023-11-04 03:17:00,SystemResetWarning,0833.9,4.99,000.00,028.1,027.3,000.0,036.4,029.6,14.4,0000.0,0003.48,0011.44,0002.20
2023-11-04 03:18:00,SystemResetWarning,0833.9,5.00,000.00,028.1,027.3,000.0,036.4,029.6,14.4,0000.0,0003.44,0011.58,0002.19
2023-11-04 03:19:00,SystemResetWarning,0833.9,4.99,000.00,028.2,027.3,000.0,036.4,029.6,14.4,0000.0,0003.42,0011.74,0002.17
2023-11-04 03:20:00,SystemResetWarning,0833.9,5.00,000.00,028.2,027.3,000.0,036.5,029.6,14.4,0000.0,0003.35,0012.20,0002.12
2023-11-04 03:21:00,SystemResetWarning,0833.9,5.00,000.00,028.2,027.3,000.0,036.5,029.6,14.4,0000.0,0003.29,0012.32,0002.07
2023-11-04 03:22:00,SystemResetWarning,0833.9,5.00,000.00,028.2,027.3,000.0,036.5,029.6,14.4,0000.0,0003.22,0013.19,0002.03
2023-11-04 03:23:00,SystemResetWarning,0833.9,5.00,000.00,028.2,027.3,000.0,036.5,029.7,14.3,0000.0,0003.22,0013.35,0002.00
2023-11-04 03:24:00,SystemResetWarning,0834.0,5.01,000.00,028.2,027.3,000.0,036.5,029.7,14.2,0000.0,0003.22,0013.79,0001.98
2023-11-04 03:25:00,SystemResetWarning,0834.0,5.00,000.00,028.2,027.3,000.0,036.5,029.6,14.1,0000.0,0003.24,0013.15,0001.96
2023-11-04 03:26:00,SystemResetWarning,0834.0,5.00,000.00,028.2,027.3,000.0,036.5,029.6,14.0,0000.0,0003.30,0013.19,0001.95
2023-11-04 03:27:00,SystemResetWarning,0834.0,5.00,000.00,028.2,027.3,000.0,036.5,029.6,14.1,0000.0,0003.30,0013.28,0001.92
2023-11-04 03:28:00,SystemResetWarning,0834.0,4.99,000.00,028.2,027.3,000.0,036.5,029.6,14.1,0000.0,0003.25,0013.42,0001.92
2023-11-04 03:29:00,SystemResetWarning,0834.0,4.99,000.00,028.2,027.2,000.0,036.5,029.6,14.1,0000.0,0003.29,0013.67,0001.91
2023-11-04 03:30:00,SystemResetWarning,0834.0,4.99,000.00,028.2,027.2,000.0,036.5,029.6,14.1,0000.0,0003.34,0014.32,0001.90
2023-11-04 03:31:00,SystemResetWarning,0834.1,5.00,000.00,028.2,027.2,000.0,036.5,029.6,14.1,0000.0,0003.35,0013.58,0001.90
2023-11-04 03:32:00,SystemResetWarning,0834.1,5.00,000.00,028.2,027.2,000.0,036.6,029.6,14.1,0000.0,0003.38,0014.02,0001.90
2023-11-04 03:33:00,SystemResetWarning,0834.1,5.00,000.00,028.2,027.2,000.0,036.6,029.6,14.1,0000.0,0003.44,0013.92,0001.90
2023-11-04 03:34:00,SystemResetWarning,0834.1,5.01,000.00,028.2,027.2,000.0,036.6,029.6,14.1,0000.0,0003.42,0013.47,0001.89
2023-11-04 03:35:00,SystemResetWarning,0834.1,5.00,000.00,028.2,027.1,000.0,036.6,029.5,14.0,0000.0,0003.41,0012.91,0001.88
2023-11-04 03:36:00,SystemResetWarning,0834.1,5.00,000.00,028.2,027.1,000.0,036.6,029.5,14.1,0000.0,0003.39,0012.81,0001.85
2023-11-04 03:37:00,SystemResetWarning,0834.1,5.00,000.00,028.2,027.1,000.0,036.6,029.5,14.1,0000.0,0003.32,0012.72,0001.84
2023-11-04 03:38:00,SystemResetWarning,0834.1,5.00,000.00,028.2,027.1,000.0,036.6,029.5,14.1,0000.0,0003.28,0012.68,0001.81
2023-11-04 03:39:00,SystemResetWarning,0834.1,5.00,000.00,028.2,027.1,000.0,036.6,029.5,14.1,0000.0,0003.25,0012.44,0001.78
2023-11-04 03:40:00,SystemResetWarning,0834.1,5.00,000.00,028.2,027.1,000.0,036.6,029.5,14.1,0000.0,0003.18,0011.82,0001.76
2023-11-04 03:41:00,SystemResetWarning,0834.1,5.00,000.00,028.2,027.1,000.0,036.6,029.5,14.1,0000.0,0003.06,0010.49,0001.73
2023-11-04 03:42:00,SystemResetWarning,0834.1,5.00,000.00,028.2,027.1,000.0,036.6,029.5,14.2,0000.0,0002.97,0010.50,0001.71
2023-11-04 03:43:00,SystemResetWarning,0834.1,5.00,000.00,028.2,027.1,000.0,036.6,029.6,14.1,0000.0,0002.88,0009.70,0001.67
2023-11-04 03:44:00,SystemResetWarning,0834.1,5.00,000.00,028.2,027.1,000.0,036.6,029.5,14.1,0000.0,0002.83,0009.20,0001.65
2023-11-04 03:45:00,SystemResetWarning,0834.1,5.00,000.00,028.2,027.1,000.0,036.6,029.5,14.1,0000.0,0002.83,0009.33,0001.64
2023-11-04 03:46:00,SystemResetWarning,0834.1,5.00,000.00,028.2,027.1,000.0,036.6,029.5,14.1,0000.0,0002.77,0009.64,0001.63
2023-11-04 03:47:00,SystemResetWarning,0834.1,5.00,000.00,028.2,027.1,000.0,036.6,029.5,14.1,0000.0,0002.70,0009.10,0001.63
2023-11-04 03:48:00,SystemResetWarning,0834.1,5.00,000.00,028.2,027.0,000.0,036.6,029.5,14.1,0000.0,0002.68,0008.65,0001.61
2023-11-04 03:49:00,SystemResetWarning,0834.2,5.00,000.00,028.2,027.0,000.0,036.6,029.6,14.1,0000.0,0002.67,0008.67,0001.59
2023-11-04 03:50:00,SystemResetWarning,0834.2,5.00,000.00,028.2,027.0,000.0,036.6,029.5,14.0,0000.0,0002.66,0008.48,0001.57
2023-11-04 03:51:00,SystemResetWarning,0834.2,5.00,000.00,028.2,027.1,000.0,036.6,029.5,14.0,0000.0,0002.68,0008.10,0001.55
2023-11-04 03:52:00,SystemResetWarning,0834.2,5.00,000.00,028.2,027.1,000.0,036.6,029.6,14.0,0000.0,0002.69,0008.29,0001.54
2023-11-04 03:53:00,SystemResetWarning,0834.2,5.01,000.00,028.2,027.1,000.0,036.6,029.6,14.0,0000.0,0002.70,0008.29,0001.53
2023-11-04 03:54:00,SystemResetWarning,0834.2,5.00,000.00,028.2,027.1,000.0,036.6,029.6,14.0,0000.0,0002.64,0008.65,0001.51
2023-11-04 03:55:00,SystemResetWarning,0834.1,4.99,000.00,028.2,027.1,000.0,036.6,029.6,14.0,0000.0,0002.59,0008.66,0001.50
2023-11-04 03:56:00,SystemResetWarning,0834.1,5.00,000.00,028.2,027.1,000.0,036.6,029.6,14.1,0000.0,0002.52,0008.81,0001.48
2023-11-04 03:57:00,SystemResetWarning,0834.2,5.00,000.00,028.2,027.0,000.0,036.6,029.6,14.1,0000.0,0002.44,0008.55,0001.46
2023-11-04 03:58:00,SystemResetWarning,0834.2,5.00,000.00,028.2,027.1,000.0,036.6,029.6,14.0,0000.0,0002.41,0008.81,0001.43
2023-11-04 03:59:00,SystemResetWarning,0834.2,5.01,000.00,028.2,027.1,000.0,036.6,029.6,14.0,0000.0,0002.36,0009.61,0001.40
